Wind_Speed
8 6 6 6 7 7 6 6 5 5 7 8 11 8 2 2 5 3 1 6 6 5 11 11 9 9 8 6 6 7 7 7 8 8 9 9 10 10 10 9 7 6 6 5 5 6 6 7 8 8 11 12 10 11 14 16 17 16 16 18 17 17 20 22 20 19 19 18 16 16 16 15 14 13 12 11 11 11 11 11 11 12 13 13 12 12 11
9 8 6 6 8 10 9 9 8 5 5 4 3 1 5 3 1 2 3 5 6 6 8 10 9 8 8 7 6 6 7 8 8 9 9 10 10 10 10 8 6 5 6 5 5 4 4 5 5 6 9 11 12 14 15 17 17 16 16 19 20 20 22 24 23 21 21 20 20 20 20 19 18 17 13 10 10 11 11 11 12 12 11 12 12 11 11
8 7 6 6 8 11 13 12 11 8 6 6 6 6 7 4 3 4 4 8 9 6 7 9 8 8 8 8 8 6 6 7 8 8 9 9 9 9 8 8 8 7 6 5 5 5 4 5 5 5 7 9 12 13 12 11 13 14 15 17 18 20 22 22 20 20 21 21 20 19 20 20 20 19 17 14 13 11 10 11 12 12 12 12 12 12 12
6 6 3 5 7 9 13 14 13 11 8 7 8 9 8 7 5 2 4 5 5 5 8 9 8 8 8 8 9 8 6 6 7 7 8 10 9 8 8 7 8 9 7 6 6 5 6 8 7 5 6 6 7 8 8 8 11 13 14 14 15 16 18 18 15 16 19 20 18 17 17 16 17 17 17 17 16 12 10 11 12 12 12 12 12 12 12
5 4 3 1 6 7 7 10 10 9 8 8 9 9 10 10 8 3 1 2 4 7 8 8 8 8 8 8 8 8 7 7 7 7 8 10 10 10 9 8 8 8 8 8 8 8 8 9 8 7 6 6 5 4 4 5 7 9 10 12 14 14 15 16 14 14 16 17 18 17 16 15 14 14 14 16 16 13 11 12 13 12 11 11 10 11 11
3 1 6 5 5 6 4 5 6 7 7 9 10 11 12 10 8 4 3 3 5 8 7 8 9 8 8 8 7 7 8 7 7 8 8 9 10 9 8 8 8 8 9 10 10 11 10 10 10 10 9 9 9 8 7 7 6 6 6 7 8 8 9 11 11 12 14 14 14 15 14 14 14 14 15 15 15 15 13 13 13 12 11 10 10 10 10
1 3 5 4 4 5 5 4 6 6 4 6 10 13 14 11 9 8 6 5 6 6 6 8 8 7 8 9 7 7 7 6 6 7 7 7 9 8 7 8 10 10 10 11 12 12 11 10 11 12 12 12 12 12 12 13 13 12 12 13 12 10 10 9 7 7 8 9 9 8 9 11 14 15 15 14 15 15 14 13 13 12 10 9 9 9 9
1 1 2 2 3 4 4 4 7 6 2 2 5 10 14 12 10 9 8 6 5 5 9 11 8 8 10 9 6 6 6 5 6 6 6 7 8 8 7 9 10 10 10 12 13 12 11 11 11 13 14 14 15 16 16 17 18 17 18 18 16 14 14 14 13 11 9 9 8 6 5 6 10 12 12 11 12 14 14 13 11 9 9 8 8 8 9
2 3 1 1 1 4 4 3 6 6 4 5 4 5 10 11 9 8 7 6 5 5 9 10 9 9 10 7 5 6 6 5 6 7 7 8 10 10 9 9 10 11 11 13 14 13 12 12 13 16 18 19 20 20 19 20 20 19 19 19 18 17 15 14 14 13 12 10 8 7 8 8 8 9 8 8 9 10 12 12 9 7 8 8 7 6 6
2 4 4 2 4 4 3 4 5 5 4 6 6 1 6 9 8 6 5 4 5 5 7 9 9 9 7 5 4 5 6 7 8 9 9 9 10 11 10 10 11 12 13 14 15 16 15 14 14 19 23 24 24 22 21 21 21 19 18 17 17 17 16 14 13 13 11 9 9 8 8 7 7 7 5 7 9 8 8 7 6 6 7 7 6 5 5
4 5 6 5 4 1 4 5 6 6 3 3 5 2 4 8 8 5 4 3 3 4 6 8 8 6 5 5 6 6 7 8 9 9 10 10 11 11 10 10 11 12 15 16 17 17 17 14 13 16 18 19 19 17 16 17 19 19 17 15 16 17 16 14 13 12 11 10 9 9 9 9 9 8 6 6 7 7 6 6 5 5 6 6 6 6 5
5 6 5 3 2 3 6 6 7 7 3 1 5 4 2 6 7 4 3 2 3 3 4 6 4 2 1 4 7 7 8 9 10 11 10 10 11 11 10 11 12 13 15 15 16 16 15 13 11 10 11 12 13 13 11 11 14 15 14 13 14 14 13 12 12 12 12 10 9 9 10 9 8 8 7 6 7 8 7 6 7 8 8 7 7 6 6
5 6 5 3 3 4 5 7 7 5 2 3 3 0 2 5 6 4 3 2 3 2 3 4 2 2 3 7 9 8 8 8 9 10 10 9 10 11 12 12 12 12 12 12 13 14 13 12 11 10 9 11 11 11 11 10 12 13 12 11 12 11 9 9 10 11 11 10 9 9 9 9 9 9 8 7 7 7 6 6 7 8 7 7 6 6 5
2 4 4 3 4 4 7 8 5 3 2 2 1 2 1 3 5 4 3 2 2 3 4 3 3 5 8 9 9 9 8 7 8 10 11 9 9 10 12 12 12 11 11 11 12 13 12 11 11 10 10 12 11 11 12 12 11 11 11 11 11 11 9 9 9 9 8 9 10 9 9 9 9 9 10 9 7 6 6 8 8 7 4 4 6 6 6
1 4 3 2 3 4 9 8 3 2 3 2 3 2 2 3 3 2 2 2 2 1 4 5 6 8 9 7 7 8 7 7 8 10 11 11 10 10 11 11 12 12 11 11 11 11 11 10 10 10 11 12 12 11 12 11 10 10 10 10 10 9 8 9 9 8 8 9 9 8 8 8 8 8 9 8 8 6 5 7 9 9 8 7 6 7 7
2 2 3 2 3 5 9 7 4 5 5 4 3 3 4 5 4 1 0 1 1 1 2 5 7 9 9 7 8 8 7 7 8 8 9 10 11 12 12 12 12 12 11 10 9 10 10 9 9 9 10 12 12 12 11 10 9 10 10 9 10 9 7 8 8 7 7 7 7 7 7 7 7 7 7 7 6 6 4 4 6 7 7 5 5 5 5
3 3 5 5 4 4 5 5 6 5 4 3 4 4 4 5 5 4 3 1 1 0 1 4 7 7 7 8 9 9 7 7 8 8 9 10 11 12 13 12 12 12 11 10 10 9 9 8 8 8 9 11 12 11 10 9 9 9 9 8 9 8 7 7 7 6 6 6 6 6 6 5 6 6 6 6 5 4 3 3 3 3 4 4 3 3 3
4 4 4 4 4 5 5 4 4 4 4 4 4 5 5 6 5 4 4 3 2 1 0 2 4 5 7 9 9 9 8 8 8 9 9 10 11 12 14 13 12 12 11 11 10 10 9 8 8 8 9 10 11 11 9 9 8 8 8 8 8 7 7 7 6 5 5 5 5 6 6 4 4 4 4 4 4 3 2 2 2 2 2 2 2 3 3
3 3 5 5 5 5 4 4 4 3 4 4 5 5 5 5 5 5 5 4 2 1 1 2 1 3 6 8 8 8 8 8 9 9 9 10 10 12 13 14 13 12 11 11 10 10 9 8 8 9 9 9 10 10 9 8 8 8 7 7 6 6 6 6 5 4 4 4 4 4 4 3 3 3 2 2 2 2 2 2 1 1 1 1 1 1 2
2 4 6 6 4 4 3 2 3 4 4 5 5 4 4 4 5 5 4 3 2 1 1 2 2 3 6 7 8 8 8 8 9 10 10 10 10 11 13 13 12 11 11 11 11 10 10 9 8 9 9 8 8 7 7 7 7 7 6 6 5 5 4 4 4 4 3 3 3 3 3 3 3 3 2 2 2 3 3 3 2 1 1 1 2 1 1
2 4 6 5 4 5 5 4 4 5 4 4 5 4 4 5 6 5 4 3 3 2 2 0 2 4 5 7 8 8 8 8 9 10 10 10 11 11 12 12 11 11 12 12 11 11 9 9 8 8 7 7 6 6 5 5 5 6 6 5 5 4 4 3 3 3 3 3 3 2 2 3 2 2 3 2 2 4 4 2 1 2 2 2 2 2 2
2 3 6 5 2 2 5 6 6 6 4 4 4 5 5 6 6 5 4 4 3 2 2 0 3 4 5 6 8 8 8 8 10 11 11 11 11 11 12 11 10 10 11 12 12 11 10 9 8 7 6 6 5 5 5 5 5 5 5 5 4 4 3 4 3 3 3 3 3 2 2 2 2 2 2 1 1 2 1 1 1 3 3 1 1 1 2
2 5 5 4 2 1 4 6 5 5 4 3 4 5 5 5 6 5 5 5 4 2 1 1 2 3 4 6 8 8 8 8 10 11 12 13 13 13 12 11 10 10 10 11 12 12 11 9 8 7 6 6 5 5 5 5 5 5 4 3 4 4 4 4 3 2 2 3 2 2 2 2 1 1 1 1 1 0 1 1 2 3 3 3 3 3 2
2 3 4 3 1 1 5 5 5 4 3 2 3 4 4 4 5 5 5 5 5 4 2 0 2 3 4 6 7 8 8 8 9 11 13 13 13 13 12 11 11 11 11 11 12 13 12 10 9 8 7 6 6 5 5 5 5 4 3 3 3 3 4 4 3 2 1 2 2 2 2 2 1 1 1 1 1 0 2 1 2 4 5 4 3 2 2
1 2 4 3 2 3 5 4 4 4 3 2 3 4 4 4 4 4 5 5 5 5 3 2 1 1 3 4 6 7 8 8 9 11 12 12 13 13 13 12 12 12 12 11 11 12 12 11 10 9 8 7 6 6 6 5 5 4 3 3 3 3 3 3 2 1 1 1 1 2 2 2 2 2 2 1 1 1 1 2 1 1 3 3 2 2 3
2 3 5 4 3 4 4 3 3 4 3 2 2 2 4 4 4 4 4 4 4 5 4 3 2 1 1 3 5 6 6 7 8 9 10 12 13 13 13 14 14 13 11 10 10 11 11 11 10 9 8 7 7 6 6 5 5 5 4 3 3 2 2 2 1 1 1 1 1 1 1 2 2 2 2 2 2 2 2 1 1 1 2 3 3 4 4
3 5 6 5 4 5 4 2 2 4 4 2 2 2 2 2 1 1 1 2 3 3 4 3 3 1 0 1 3 4 5 6 7 9 11 12 13 13 13 13 12 11 11 10 10 11 11 11 10 9 8 8 8 7 6 6 5 4 3 2 1 1 2 2 1 1 1 1 1 1 1 1 2 2 2 2 2 2 2 2 2 2 3 3 3 5 7
5 6 5 3 2 3 4 3 4 5 4 3 2 1 1 1 1 2 1 0 1 2 2 2 2 1 1 1 2 4 5 6 8 9 11 13 13 13 12 11 10 10 10 10 10 11 12 12 11 10 9 9 9 8 7 6 5 4 3 2 1 1 1 1 1 1 2 1 2 2 2 2 3 3 2 2 3 3 3 3 3 3 2 2 3 6 9
6 6 4 1 2 4 6 5 5 5 4 3 2 2 2 3 2 2 2 0 1 1 1 1 1 1 2 1 2 4 5 6 8 9 10 12 13 12 11 10 10 10 11 11 11 12 13 12 12 11 10 10 10 9 8 7 5 4 3 1 0 0 1 1 1 2 2 2 2 2 3 3 3 3 3 3 3 3 3 3 3 3 3 3 3 5 6
6 6 5 4 4 5 5 5 5 5 5 4 3 3 3 3 3 2 1 1 2 2 1 1 2 2 3 3 3 3 4 5 6 8 9 11 12 12 11 10 10 11 12 12 13 13 14 14 13 12 11 11 11 9 8 7 5 5 4 2 1 0 1 1 2 2 2 2 2 3 4 4 3 3 3 3 3 3 4 3 3 4 4 4 4 4 4
7 7 6 6 5 6 5 5 4 4 4 4 4 3 3 3 3 2 1 1 1 1 1 2 2 2 3 3 3 3 4 5 5 6 7 9 11 12 12 12 12 13 13 14 16 16 15 15 14 13 12 12 12 11 9 7 6 5 4 3 3 3 3 3 3 3 3 3 3 4 4 4 4 4 4 4 4 4 5 5 4 5 5 4 4 4 4
8 8 8 7 6 6 6 5 4 5 4 4 4 4 4 3 2 2 2 1 1 1 2 2 3 3 3 3 3 4 5 5 5 6 7 8 10 11 12 13 15 16 15 15 15 16 16 16 16 15 14 14 13 12 11 9 8 6 5 4 4 4 2 2 2 3 3 4 4 4 4 4 4 4 5 5 5 5 5 5 5 5 5 5 5 4 4
8 7 7 7 7 7 6 6 5 5 5 5 4 4 3 3 3 3 3 3 3 3 3 4 4 4 4 4 5 5 6 6 6 7 7 8 9 10 12 13 15 16 15 14 14 15 17 17 17 16 16 16 15 13 12 11 9 8 6 5 5 4 3 3 3 3 4 4 4 4 4 4 5 5 5 5 6 6 6 6 5 5 5 5 5 4 4
7 5 5 6 7 6 6 6 5 5 4 5 5 4 4 4 4 4 4 4 5 6 6 6 7 7 7 8 8 8 8 8 8 8 8 8 9 9 10 12 13 13 14 15 15 16 17 17 17 18 19 19 18 15 14 12 10 9 8 6 5 5 5 5 4 4 4 4 4 4 4 5 6 6 6 6 6 6 6 6 6 6 6 6 6 5 4
5 2 2 4 5 3 3 4 4 4 4 4 4 4 5 5 5 5 6 6 7 8 8 9 9 9 10 11 11 11 11 11 11 11 11 10 10 10 10 11 12 13 14 16 17 18 18 19 20 20 20 20 19 17 16 14 12 10 9 8 7 6 6 5 5 5 5 4 4 4 5 5 5 5 6 6 6 7 7 7 7 8 8 8 7 6 6
5 5 5 5 5 4 3 2 2 2 2 3 3 4 4 5 6 7 8 8 9 10 10 11 11 12 13 13 13 13 14 13 13 13 13 12 12 12 12 13 13 14 15 16 17 19 18 19 22 24 22 21 19 18 17 15 13 10 9 8 7 7 7 6 6 6 5 5 5 5 5 5 5 5 6 7 7 7 7 8 8 8 9 8 8 8 8
6 6 6 6 5 5 4 3 2 1 2 3 4 5 6 7 8 9 9 10 11 11 11 12 13 14 15 15 15 15 16 15 15 15 14 14 14 13 14 15 15 15 16 16 17 18 17 19 24 26 23 19 18 17 16 15 12 10 9 9 8 7 7 6 6 6 6 5 5 5 5 6 6 6 6 7 7 8 8 8 9 9 9 9 9 9 9
8 8 7 6 5 4 3 2 1 1 3 4 5 6 8 9 10 10 11 11 12 12 13 14 15 15 16 16 16 17 17 17 17 17 17 17 16 16 16 16 16 16 17 16 16 16 17 19 22 23 20 18 18 18 17 15 12 9 8 8 7 6 6 6 6 6 5 5 5 5 5 6 6 6 7 7 8 8 9 9 9 9 9 9 9 9 9
8 7 6 5 4 2 1 0 2 3 4 6 7 8 8 9 10 11 12 12 13 13 14 15 16 16 17 17 17 18 18 18 18 18 18 18 17 18 18 18 17 17 17 15 14 15 17 19 21 22 20 19 19 19 17 15 12 9 8 7 7 6 6 6 6 6 6 5 5 5 5 6 6 7 7 8 8 8 9 9 9 9 9 9 9 9 9
6 5 4 3 2 1 2 3 4 4 5 6 7 8 9 10 11 12 13 14 15 15 16 17 17 17 18 17 18 18 18 17 17 18 17 17 17 17 17 18 17 15 13 12 13 16 19 21 22 21 20 19 18 18 17 16 12 9 8 7 7 7 7 6 6 6 6 6 5 5 6 6 7 7 8 8 8 9 9 9 9 9 9 9 9 8 9
5 4 3 2 1 2 2 3 4 4 4 5 6 8 9 11 12 13 14 14 15 15 16 16 17 17 18 18 18 18 18 17 17 17 16 16 15 15 15 14 12 10 10 12 13 16 20 22 22 20 19 18 17 17 18 16 12 9 8 8 7 7 7 7 7 7 6 5 5 6 7 7 7 7 8 8 8 8 8 8 9 9 8 8 8 8 8
4 3 2 2 1 1 2 2 3 4 5 6 7 8 9 10 10 12 13 13 14 15 15 16 17 18 18 19 19 19 19 19 18 17 16 15 15 15 14 11 10 11 12 13 14 18 22 22 19 18 18 17 16 17 17 14 11 9 8 8 7 7 6 6 6 6 5 5 6 6 7 6 7 7 7 7 7 7 8 8 8 8 8 8 8 8 8
4 4 3 2 2 2 2 3 4 5 7 7 8 8 8 8 9 11 12 13 14 15 15 16 17 17 18 18 19 19 19 18 18 17 16 14 12 11 10 8 8 13 16 18 19 21 21 19 17 17 17 17 17 18 16 12 10 9 8 7 7 7 6 6 6 5 6 6 6 7 6 6 6 6 6 7 7 7 7 7 7 8 8 7 7 7 7
5 4 3 2 2 2 3 4 5 6 7 7 7 6 6 7 8 9 10 11 12 13 14 15 16 16 17 18 18 17 17 16 15 14 12 9 6 5 5 7 10 15 20 21 21 20 19 17 17 18 17 17 18 17 14 10 9 8 7 7 7 7 6 6 6 6 6 7 6 6 6 5 5 6 6 6 6 6 7 7 7 7 7 7 7 7 7
5 4 3 2 3 4 4 5 5 5 5 5 4 4 5 6 7 8 9 9 10 11 11 12 13 14 16 17 17 15 14 12 11 10 9 8 6 5 7 10 15 19 21 21 20 19 18 18 19 19 18 17 16 15 11 9 8 8 7 6 6 6 6 6 6 6 6 6 6 5 5 5 5 5 5 5 6 6 6 6 6 6 6 6 6 6 6
5 3 2 2 3 3 3 4 3 3 2 2 1 3 5 6 7 7 8 9 10 10 10 10 10 11 12 14 14 12 9 6 5 6 7 7 6 9 12 15 18 22 22 20 18 18 18 18 19 19 17 16 14 12 9 8 8 7 7 6 6 6 6 6 6 6 6 5 5 5 5 5 5 5 5 5 5 6 6 6 6 6 6 6 5 5 5
4 2 1 2 2 2 1 1 1 1 1 1 2 3 5 6 6 7 8 9 9 9 9 8 8 9 9 9 7 4 3 3 2 2 3 4 7 13 18 20 22 23 23 20 18 16 16 16 17 16 15 14 12 9 8 8 8 7 6 6 6 6 6 5 5 5 5 5 5 5 5 4 5 5 5 5 5 6 6 6 6 5 5 5 5 5 5
3 1 1 1 1 1 0 1 2 2 2 3 3 4 4 5 6 7 8 8 9 9 9 9 10 10 9 8 7 4 1 3 4 5 7 12 16 20 21 22 22 21 20 19 16 14 13 13 14 14 14 12 10 8 8 8 7 6 6 6 6 6 5 5 5 5 5 5 5 5 5 5 5 5 5 5 6 6 5 5 5 5 5 5 5 5 5
3 2 2 2 1 1 1 2 2 3 3 3 3 3 3 3 5 6 7 8 9 10 10 11 11 11 10 9 9 7 5 7 10 13 17 21 24 24 22 21 20 18 17 15 14 12 11 12 13 13 12 10 9 8 7 7 6 6 6 6 6 5 5 5 5 5 5 5 5 5 6 6 6 5 5 6 6 6 5 5 5 5 5 5 5 5 5
4 2 2 2 2 2 2 3 3 4 4 4 4 4 3 4 5 6 7 7 8 10 11 11 12 12 12 13 14 16 17 17 18 20 22 23 23 22 20 18 17 16 14 13 12 11 12 12 12 11 10 8 8 7 6 6 6 6 6 5 5 5 5 5 5 5 5 5 6 6 6 7 7 6 6 6 6 6 6 6 6 5 5 5 5 5 4
4 3 3 3 3 3 3 3 4 5 5 5 5 5 4 4 5 5 6 6 7 8 9 10 11 12 13 14 15 17 20 21 20 20 20 19 18 18 17 16 14 13 12 12 12 12 12 12 11 10 8 7 7 6 6 5 5 5 5 5 6 5 5 5 6 6 5 6 6 6 7 7 7 7 7 6 6 6 6 6 6 6 5 5 5 4 4
4 4 4 5 5 4 4 5 6 6 6 6 6 5 4 4 4 5 5 6 6 6 7 8 9 10 11 12 12 13 15 17 17 17 17 16 14 14 14 13 12 11 10 11 11 11 10 10 9 9 7 7 6 6 6 5 5 5 5 5 5 5 5 5 5 5 5 5 5 6 6 6 6 7 7 6 6 6 6 6 6 5 5 5 5 5 5
Wind_Direction
91 91 91 95 116 121 119 127 141 170 181 206 224 230 336 333 244 264 200 204 221 156 143 153 155 151 152 146 134 134 138 141 143 138 131 133 133 129 130 129 124 135 148 154 157 158 169 183 184 188 202 209 206 200 206 219 222 214 208 208 205 203 207 211 216 224 228 229 226 219 216 218 222 223 221 222 223 222 224 228 230 230 230 229 227 226 225
100 97 107 110 109 105 93 82 80 106 131 137 195 155 32 19 281 9 64 116 91 89 126 134 142 155 153 140 128 129 138 142 143 146 147 146 138 128 129 137 143 151 159 164 168 170 170 165 159 174 199 204 200 200 206 214 217 210 200 202 206 210 215 222 229 231 231 230 227 225 225 226 230 230 227 224 223 220 220 226 231 230 229 229 227 224 223
115 107 123 127 115 102 86 67 57 67 85 80 65 45 24 13 37 57 111 113 88 81 106 117 139 152 139 136 136 130 134 141 142 144 144 135 124 122 140 162 160 152 160 166 162 165 151 120 122 164 194 199 201 205 206 209 211 207 201 202 207 212 219 225 227 226 223 222 223 227 227 227 232 234 233 228 224 220 220 223 227 227 227 228 229 229 226
132 117 122 137 145 119 85 56 39 40 53 69 65 46 33 22 6 359 158 128 97 105 111 116 136 141 135 141 137 128 129 136 142 142 133 124 122 134 151 152 138 133 137 140 135 125 102 93 102 134 160 174 194 204 204 210 214 212 209 210 210 213 217 218 217 216 216 216 221 227 228 226 228 231 233 232 226 220 217 221 224 226 227 228 230 232 231
153 127 13 322 196 167 87 42 20 24 44 76 79 54 41 27 355 326 182 67 86 120 128 134 141 143 148 147 134 133 135 134 136 132 128 132 136 141 141 129 121 118 113 110 105 95 90 92 97 105 111 115 117 127 153 183 200 204 206 210 212 215 215 213 213 214 213 214 219 224 225 224 224 225 227 227 225 221 216 219 223 225 225 224 225 229 231
191 90 339 301 212 167 90 32 8 15 38 65 71 54 41 31 18 32 55 58 111 137 149 148 146 146 142 134 132 137 134 130 133 130 129 132 128 126 129 123 111 101 98 98 94 89 91 94 94 95 95 94 92 92 94 95 108 124 134 151 171 183 189 195 203 208 211 215 219 222 224 223 223 225 224 220 220 222 218 213 214 217 217 216 218 221 221
265 7 318 259 164 109 94 59 23 13 32 67 74 63 47 33 33 51 64 82 116 145 144 131 137 135 117 114 119 125 124 125 129 127 127 126 119 119 124 115 106 105 104 99 92 90 92 92 92 92 91 91 93 93 90 86 85 88 92 96 99 104 115 127 142 169 187 195 200 207 218 220 219 220 216 208 206 209 210 207 205 204 202 204 211 214 215
223 354 292 231 122 109 130 80 24 8 9 46 70 67 48 31 33 51 59 72 94 125 124 121 133 128 107 96 90 98 105 112 119 120 116 111 106 110 118 114 111 114 111 103 99 96 94 91 90 89 87 87 90 88 86 85 84 85 89 89 82 78 86 95 100 104 114 130 144 145 151 181 195 196 196 193 191 194 197 197 194 193 195 199 206 212 217
201 176 122 33 179 174 149 83 18 6 6 342 338 59 53 31 30 47 57 78 100 119 123 126 141 138 115 90 73 83 82 80 93 98 98 98 97 101 113 116 111 109 108 108 109 106 99 94 94 97 97 96 95 90 85 84 83 80 80 81 76 71 69 72 78 83 88 96 103 108 115 122 136 151 164 170 171 178 184 184 182 181 184 189 197 201 208
208 177 141 157 214 194 110 69 29 5 351 331 317 34 65 31 20 34 45 73 109 133 138 140 150 151 132 106 93 96 92 86 89 90 91 97 101 106 116 119 114 113 112 111 111 109 103 97 97 105 108 104 98 90 84 86 87 80 73 73 74 73 69 64 66 70 72 72 71 81 91 84 80 90 111 137 148 153 157 160 158 161 165 166 169 172 177
196 198 177 183 207 165 48 36 16 7 6 327 288 230 82 26 7 17 33 58 115 142 152 154 162 173 159 129 114 106 99 93 93 96 98 101 105 111 119 120 120 119 114 111 110 109 105 101 100 104 105 100 95 87 81 84 86 81 76 77 79 79 78 79 79 77 74 70 65 66 67 60 56 57 68 106 124 120 118 126 130 141 150 142 132 128 132
190 209 195 164 140 70 34 3 352 4 27 253 250 220 84 14 352 360 24 48 90 119 158 160 159 197 204 120 111 105 96 84 76 77 83 95 107 114 114 114 118 120 119 118 116 113 111 111 110 108 100 94 94 96 96 94 90 86 85 87 86 84 83 86 89 88 84 78 67 63 66 68 71 67 59 71 93 100 110 123 131 134 130 123 122 121 122
184 209 198 134 98 63 15 346 348 2 342 236 244 196 36 347 338 343 353 35 74 96 151 153 122 61 96 121 131 132 122 107 94 86 82 86 98 108 114 118 119 117 118 117 112 110 112 115 116 115 107 98 96 100 103 100 97 99 103 101 96 92 91 91 89 89 91 88 80 74 70 75 88 90 80 74 84 98 107 115 125 127 113 109 127 136 135
165 201 196 149 117 62 352 328 331 340 288 246 60 54 13 334 336 333 325 352 72 114 134 125 91 94 111 127 142 143 138 135 130 123 117 108 102 108 119 125 123 117 116 116 113 112 113 113 115 115 109 103 99 98 97 94 96 104 110 108 102 96 93 92 89 88 94 93 87 80 72 70 78 84 84 87 90 92 101 114 128 140 139 132 138 134 131
192 186 178 164 129 56 353 327 318 12 6 42 51 38 51 33 3 316 306 336 357 100 128 124 114 115 122 133 139 138 142 144 138 135 136 133 129 130 133 130 125 123 123 122 117 114 111 108 109 110 107 105 102 100 99 98 100 105 106 106 108 104 97 93 88 84 88 88 81 72 67 66 68 71 78 89 91 88 103 125 134 143 153 158 148 133 126
283 193 125 88 81 42 7 358 45 52 38 42 6 351 37 43 22 1 35 51 6 8 99 122 127 131 140 151 150 146 148 145 140 142 145 145 145 145 142 136 129 126 124 121 112 105 103 103 106 110 111 110 108 104 103 104 105 106 104 104 106 105 100 95 89 79 77 80 77 72 63 54 55 64 71 79 80 77 91 122 131 134 142 146 140 135 129
17 40 68 75 81 64 35 37 58 54 43 36 359 352 24 32 18 4 4 56 95 48 93 122 134 146 160 169 165 158 154 151 151 154 154 151 147 141 135 133 132 129 128 125 115 105 101 99 100 106 113 115 113 108 107 108 107 105 105 105 103 100 94 91 88 82 78 74 69 71 66 49 41 43 45 58 67 64 69 97 110 118 130 136 134 135 132
92 72 80 96 98 91 81 72 64 46 38 38 17 10 25 26 17 7 1 19 54 40 16 144 151 158 169 175 170 161 161 165 163 159 156 154 148 140 135 134 137 137 132 126 120 113 108 105 105 107 112 115 114 113 114 112 106 103 104 103 99 97 93 87 81 76 75 71 64 62 64 62 58 42 25 39 63 68 74 99 107 112 126 143 153 149 136
158 127 111 111 104 100 103 111 110 89 59 49 33 28 34 27 18 23 19 13 28 39 299 248 201 160 167 173 166 160 168 177 173 166 160 155 154 151 145 142 143 142 136 131 127 120 114 112 111 112 115 116 118 121 123 118 113 110 108 105 103 103 100 98 93 82 72 67 65 63 59 58 72 71 44 37 74 88 88 87 102 153 166 157 133 128 127
149 104 108 114 115 121 123 113 113 109 88 74 62 48 48 45 42 48 39 19 23 33 301 249 217 184 179 176 168 166 173 180 182 181 170 161 158 154 147 144 145 142 136 133 131 125 121 120 118 117 119 118 119 122 120 116 116 115 110 109 110 109 110 110 105 99 93 85 77 70 64 55 52 50 34 21 50 60 54 47 48 50 61 78 71 48 43
163 126 137 150 155 153 148 119 95 93 84 82 83 70 59 55 55 57 55 45 36 17 1 230 195 195 190 185 182 181 180 179 183 186 179 167 160 153 147 147 146 143 139 137 133 129 127 128 126 123 125 126 127 126 120 115 116 115 111 111 107 103 106 104 92 89 94 89 80 75 81 87 84 58 27 14 53 59 45 33 86 96 74 61 49 20 8
215 124 140 158 200 172 135 117 102 94 80 73 78 69 57 52 46 40 44 57 63 40 20 206 199 194 192 196 196 194 194 190 184 182 178 171 167 161 154 150 145 139 137 137 135 134 135 136 133 132 135 137 133 127 120 117 115 113 114 114 109 105 100 87 72 61 62 66 64 58 64 86 106 94 42 20 90 96 60 336 195 165 160 162 145 72 46
41 75 110 146 261 352 103 112 108 98 81 66 72 67 54 52 47 33 25 33 43 54 60 235 224 209 206 207 205 206 209 201 188 183 182 180 177 171 163 157 150 143 143 146 145 143 144 144 142 144 146 141 132 122 117 115 114 112 111 111 107 106 99 86 69 49 41 41 38 35 34 33 60 136 126 90 70 11 293 245 197 184 189 204 208 194 162
53 95 111 136 224 94 111 115 107 95 77 48 65 70 58 51 47 38 33 28 22 26 38 104 226 234 232 223 219 220 219 208 196 191 189 187 184 178 171 167 162 159 162 166 161 155 152 150 150 155 152 143 136 130 122 116 111 104 101 105 102 97 97 98 90 68 42 21 5 359 354 351 344 294 215 176 169 334 346 325 200 183 181 186 191 204 215
102 119 119 133 139 105 112 122 117 106 81 42 52 63 60 54 43 37 44 41 27 20 22 35 56 238 235 229 227 228 226 219 208 196 189 189 188 185 182 180 177 177 178 177 169 161 156 154 158 161 155 147 144 139 129 123 116 103 93 89 85 80 81 86 85 61 41 13 343 333 330 326 320 306 298 281 224 209 341 333 307 203 201 209 213 250 276
105 116 134 153 152 133 141 162 157 141 125 98 92 81 73 70 52 36 41 42 34 28 24 26 35 18 251 234 228 226 225 221 209 197 194 195 194 193 194 191 188 186 184 180 174 167 162 162 165 165 160 156 154 146 137 131 121 113 104 90 78 68 52 44 37 15 11 2 335 324 325 315 300 282 285 304 307 285 257 252 254 250 269 286 300 306 304
156 151 160 175 182 178 187 200 141 136 138 138 137 114 93 88 57 20 44 56 45 35 27 28 34 32 319 241 227 224 220 210 200 200 207 209 206 205 207 205 201 196 192 187 179 171 168 171 174 174 172 166 158 152 146 139 131 125 120 107 97 73 36 25 7 341 353 359 341 330 317 291 287 280 262 254 265 264 258 260 259 251 250 257 287 314 321
172 173 186 217 223 169 157 139 126 133 142 154 158 166 209 218 248 264 261 72 59 42 35 31 24 8 309 229 218 218 217 213 210 214 218 219 217 215 217 219 216 206 199 195 186 177 176 179 182 184 182 172 165 162 157 149 144 140 132 126 143 132 76 38 359 338 344 345 331 324 313 293 282 277 269 257 249 240 238 244 253 264 261 240 264 305 317
177 177 186 184 80 112 130 142 152 156 160 169 176 211 243 247 246 249 250 296 329 309 358 24 4 332 305 270 236 229 229 226 224 225 224 223 222 219 219 220 215 205 201 199 192 186 186 189 191 191 186 176 171 169 165 160 159 155 149 150 285 42 62 34 356 332 317 315 308 298 288 282 278 272 265 261 259 251 241 238 244 262 274 269 270 288 296
178 177 181 164 146 153 161 167 174 174 172 179 191 209 239 254 257 256 250 309 300 295 326 345 323 308 298 292 276 261 256 249 239 235 232 228 224 220 215 208 202 200 201 199 195 195 195 196 197 196 189 181 177 173 171 170 166 162 164 170 172 210 229 274 313 309 295 286 279 272 263 254 255 265 266 263 262 258 251 252 259 263 266 264 263 268 271
174 175 181 176 174 187 191 186 188 186 179 190 207 211 216 232 243 239 215 243 279 298 331 325 313 308 307 304 301 294 284 272 259 249 242 235 230 224 218 211 210 211 207 200 199 201 199 198 200 198 190 183 179 177 179 179 176 174 175 176 188 222 243 260 274 282 286 281 271 268 267 259 256 263 267 266 267 265 259 255 255 255 258 259 255 260 277
171 175 184 187 192 204 207 200 205 207 198 201 215 216 209 216 230 232 227 239 268 289 303 303 301 307 314 311 307 301 291 282 272 262 252 244 239 231 223 221 227 228 221 210 205 202 199 199 200 194 186 181 180 181 183 184 183 186 189 184 189 206 231 263 254 247 263 276 272 266 264 265 264 263 264 265 267 267 265 264 260 258 262 263 261 269 286
177 182 194 198 201 211 215 213 220 224 214 211 218 217 212 219 232 239 244 257 266 269 274 280 284 287 291 289 286 285 285 281 276 268 258 250 244 236 228 228 232 231 224 220 216 211 205 202 196 186 181 181 181 182 186 188 188 191 194 195 195 196 196 210 230 240 251 257 259 263 270 277 277 271 264 263 264 264 267 269 269 266 265 264 267 275 278
199 207 213 206 205 218 227 225 224 224 217 215 217 215 217 228 236 243 249 255 260 265 272 279 279 278 277 277 276 274 273 272 270 266 264 262 258 250 240 235 232 226 221 222 223 219 212 201 188 181 184 187 185 182 185 188 190 191 193 195 198 198 199 203 212 226 241 246 248 260 268 269 267 265 263 263 265 266 269 272 273 274 272 269 271 271 264
191 172 155 169 182 200 217 215 214 214 216 220 220 217 224 236 248 255 258 260 265 271 275 276 276 274 272 271 270 267 267 267 266 267 269 268 266 262 255 245 236 227 222 221 220 217 210 199 188 185 187 186 184 184 184 186 190 191 190 193 197 199 201 205 210 220 233 243 248 253 255 255 256 259 263 269 272 272 271 270 270 271 271 269 269 265 258
159 140 123 123 129 130 133 151 173 189 214 235 245 247 250 258 263 265 266 267 270 273 274 273 273 272 270 268 267 265 265 266 266 267 267 266 266 265 260 251 241 232 228 224 219 214 210 205 201 199 192 182 180 184 183 182 185 188 187 190 196 198 199 205 213 218 225 234 242 246 248 251 258 263 264 266 266 266 266 267 266 267 268 268 268 266 263
129 123 115 111 113 116 115 117 125 161 220 248 263 271 273 274 274 274 274 273 272 272 273 272 271 270 269 268 268 267 266 266 265 265 264 265 266 263 257 251 245 238 236 234 225 217 215 212 207 202 192 181 180 182 178 175 178 183 187 193 198 200 201 205 210 215 218 220 226 234 239 242 247 251 252 255 256 259 262 265 266 266 266 267 268 269 268
106 105 106 107 110 113 113 117 136 244 268 273 277 278 278 278 279 278 276 275 274 275 275 273 272 272 271 269 267 266 266 265 265 264 264 263 262 260 256 251 244 237 239 240 230 218 213 206 198 194 189 182 179 177 173 171 174 181 190 196 198 198 203 209 213 215 215 211 210 220 236 243 243 241 241 246 252 256 260 263 264 265 266 266 266 266 267
109 108 107 107 109 107 97 311 285 289 291 289 286 284 282 283 283 282 280 278 277 277 276 275 274 273 271 268 266 265 264 263 263 263 261 259 258 258 256 251 246 244 246 241 224 210 202 191 184 186 188 184 178 175 173 171 172 179 189 192 193 198 207 214 216 215 212 207 208 217 228 234 236 238 243 248 252 255 257 258 260 261 263 263 263 264 265
113 109 101 94 85 29 336 315 306 303 301 296 292 290 289 288 286 283 282 280 279 278 276 275 273 271 269 267 266 265 264 264 262 260 258 258 258 258 256 252 248 245 238 224 211 204 194 184 180 184 186 183 179 178 177 174 173 178 185 187 193 201 206 210 218 218 210 202 206 216 223 229 236 242 246 249 251 252 253 254 256 258 259 261 263 265 268
104 96 83 61 23 355 337 320 312 311 306 301 298 294 293 292 290 287 285 284 283 281 278 274 273 271 269 268 267 265 265 265 262 259 258 256 253 253 253 249 237 222 212 210 206 194 183 178 177 176 174 170 166 164 167 172 176 180 183 189 196 202 202 205 214 216 208 201 209 219 226 232 240 244 245 246 247 248 250 251 253 256 259 261 263 265 267
101 96 88 84 63 21 355 336 327 322 316 314 311 305 301 299 296 293 291 289 286 284 280 276 274 272 272 271 269 267 265 264 262 259 257 254 251 252 251 240 217 202 199 194 180 169 168 171 171 165 158 152 149 151 159 168 175 176 180 188 195 200 203 205 208 208 205 204 212 221 227 233 237 239 240 241 241 243 247 251 253 255 256 257 260 262 265
116 115 109 98 70 28 358 337 326 321 317 316 314 310 308 307 303 300 299 297 294 292 289 284 280 276 272 268 265 262 260 259 258 257 254 251 252 253 246 224 197 190 184 171 160 160 164 165 160 153 147 144 147 153 157 161 165 170 176 186 192 195 197 198 202 207 208 208 214 220 223 227 229 232 234 236 239 243 247 250 252 254 256 257 259 262 265
124 117 102 78 36 1 337 323 319 317 313 310 311 315 320 321 318 314 313 309 305 303 299 294 288 282 274 267 262 260 259 258 257 255 249 240 232 228 213 189 181 180 175 166 161 161 160 154 148 146 144 145 152 157 155 153 160 169 175 183 189 190 188 191 199 207 208 210 215 218 217 217 222 227 231 236 241 245 247 249 251 254 257 259 262 265 268
124 110 86 39 1 347 332 322 320 317 309 302 308 333 347 343 335 332 329 325 320 319 316 308 299 290 281 273 267 263 262 262 258 247 234 220 202 191 188 180 172 167 164 160 155 150 145 141 143 146 146 148 154 155 152 152 161 167 171 177 183 185 186 191 196 200 200 203 207 208 210 216 222 226 231 238 243 244 245 249 252 254 256 257 261 265 271
127 118 72 9 354 346 336 328 326 318 298 284 344 21 13 0 351 350 349 345 342 342 339 331 323 315 305 292 276 261 254 255 246 232 231 231 211 188 178 169 160 155 152 146 138 132 130 133 140 147 150 151 152 152 150 153 158 162 168 173 176 178 184 188 190 192 195 198 200 204 211 220 224 227 232 237 240 242 245 247 248 249 250 253 258 264 271
147 138 46 12 3 353 346 356 27 89 111 80 49 36 25 16 12 13 13 9 7 7 6 2 359 355 346 335 321 282 222 182 151 182 213 201 169 159 154 148 145 144 141 133 123 122 127 134 143 149 151 149 148 149 152 153 155 160 166 169 171 176 182 183 185 189 194 197 202 210 218 222 225 230 236 237 238 241 242 242 243 244 246 250 258 266 272
156 126 73 52 28 18 74 131 125 104 81 67 58 49 39 33 34 35 33 30 31 34 33 31 28 25 21 18 18 18 164 159 130 125 140 142 136 132 128 125 125 127 126 121 119 122 132 141 149 153 151 146 145 149 150 151 155 162 167 167 170 176 180 185 191 197 203 207 212 219 224 225 226 232 237 237 238 241 241 238 239 240 243 249 258 265 272
144 125 116 119 101 87 126 145 129 105 94 91 84 72 59 57 58 54 47 44 45 46 44 43 42 41 44 52 59 68 98 121 120 121 127 129 126 122 119 118 118 119 118 118 122 131 140 148 155 157 153 147 147 152 154 156 162 165 166 170 174 178 183 194 201 202 207 214 220 225 228 227 228 233 239 239 238 239 239 238 237 239 245 256 262 265 270
141 135 134 137 131 137 153 146 127 122 125 120 110 104 103 94 79 67 59 56 55 52 51 52 54 55 60 68 77 86 95 102 106 111 116 120 121 122 122 122 122 123 123 123 127 135 142 150 157 159 155 150 150 155 160 165 168 167 170 178 182 183 188 198 203 205 212 221 227 230 231 229 228 232 237 240 238 237 236 237 239 244 252 260 262 262 267
147 148 148 149 148 149 147 134 126 131 138 135 130 130 125 109 96 87 76 68 66 67 67 65 65 69 74 77 82 89 96 102 105 106 108 111 115 120 124 125 124 125 127 130 136 142 147 153 158 159 155 149 148 152 158 162 167 172 178 184 187 192 197 202 207 214 223 228 232 236 235 232 232 233 234 234 235 234 234 237 241 246 250 253 254 256 264
157 151 153 158 156 150 146 143 142 148 156 158 157 160 157 139 127 118 101 82 77 83 88 86 83 84 88 91 93 98 105 111 114 115 117 119 121 124 128 130 130 129 131 134 139 144 149 153 157 159 157 151 147 148 152 157 166 175 181 184 191 200 204 206 213 223 229 232 237 240 238 234 232 230 228 227 229 232 234 238 241 243 246 249 251 256 265
Height
783 780 779 774 774 778 778 778 780 778 777 779 780 780 779 780 791 795 782 776 782 783 784 790 793 795 801 802 801 802 804 806 806 807 810 811 811 812 813 815 817 819 820 821 823 825 826 828 830 830 830 831 832 834 837 839 840 839 839 840 841 843 843 844 846 847 848 851 852 852 852 853 855 856 857 858 859 860 861 862 863 864 864 865 866 867 867
785 781 781 776 775 780 781 781 781 779 779 781 781 782 782 782 787 787 781 784 788 784 784 789 793 795 797 800 803 804 805 807 807 809 811 811 813 815 816 817 819 820 821 821 823 825 826 827 829 830 831 832 832 834 836 837 837 838 838 838 839 840 841 842 844 845 847 848 850 851 851 851 852 854 855 857 857 858 859 860 862 862 863 864 864 865 866
789 784 780 777 777 781 786 787 784 781 783 784 785 787 786 784 787 785 783 790 794 788 786 792 796 796 796 801 805 807 807 808 808 809 810 812 816 819 818 817 817 819 821 822 824 825 826 828 828 829 831 832 833 834 834 834 835 835 836 837 838 839 839 841 843 844 845 846 848 849 849 849 851 852 853 854 855 856 856 858 860 861 862 863 863 863 864
795 786 781 781 778 777 786 794 793 789 789 790 791 792 791 793 795 790 787 794 796 792 793 799 801 800 801 805 806 808 810 809 809 810 811 815 820 820 819 818 817 819 821 823 825 826 827 828 828 829 830 831 832 832 832 833 833 833 835 835 836 838 838 840 841 842 843 844 846 847 848 848 849 850 851 853 854 854 855 856 858 859 860 861 861 862 862
796 786 784 783 780 786 799 803 800 797 792 791 793 794 793 794 793 793 796 798 795 794 799 804 805 805 805 806 806 808 810 809 810 811 812 815 817 817 817 817 818 820 822 824 826 827 828 829 829 829 830 830 831 831 831 832 832 833 834 834 836 837 837 839 839 839 841 842 843 845 846 847 848 849 850 851 852 853 853 854 856 857 858 859 860 861 861
799 791 787 785 791 807 814 804 797 797 795 793 797 799 798 796 791 791 796 795 793 796 800 803 807 807 804 804 805 805 807 809 810 811 811 812 814 814 815 816 818 822 824 826 828 829 830 831 831 831 832 832 832 832 832 833 833 834 835 835 836 836 836 836 837 838 839 840 842 843 844 845 846 847 848 849 849 851 852 853 855 856 857 858 858 859 860
803 799 795 803 815 817 809 799 796 797 795 794 796 800 801 798 793 791 794 794 795 798 799 802 806 805 803 805 807 805 806 808 809 811 812 812 813 816 816 817 820 824 826 827 829 830 832 832 832 833 834 834 834 834 834 834 835 835 836 836 836 836 836 836 836 837 838 839 841 842 843 844 845 846 847 847 847 849 850 852 854 854 855 856 857 858 859
808 810 812 819 823 813 801 801 802 799 798 798 798 803 807 803 797 796 800 802 800 799 800 805 808 806 806 811 812 810 808 808 808 811 813 813 815 818 819 820 823 825 827 829 830 832 833 834 834 835 835 836 836 836 836 836 836 837 838 838 838 838 838 837 837 838 839 840 841 842 843 844 844 845 846 846 847 848 850 852 852 853 854 855 856 857 858
807 814 821 821 818 815 812 811 808 806 807 806 805 810 813 807 800 801 804 805 805 803 804 807 808 807 811 820 820 815 812 811 809 811 813 815 818 820 822 823 825 827 829 831 832 833 835 836 837 837 837 837 837 838 838 837 838 839 839 840 841 841 841 841 840 841 841 842 842 843 844 844 844 844 845 846 847 849 850 851 851 852 854 855 856 857 857
804 811 825 829 828 827 821 814 809 807 807 807 805 809 815 812 805 803 805 806 806 806 805 808 809 810 817 826 826 819 815 815 814 815 818 819 821 823 825 827 828 831 832 833 834 836 837 838 839 839 839 839 839 840 840 839 840 841 841 842 843 842 843 843 843 843 844 844 844 845 845 846 846 846 846 847 848 850 851 851 851 853 854 855 856 857 857
805 810 821 828 829 827 820 813 809 805 806 808 807 811 818 818 809 805 806 806 806 805 806 807 810 815 821 825 824 820 818 817 817 820 822 823 825 827 828 829 831 833 835 836 837 838 839 841 842 842 841 841 841 842 843 843 843 842 843 844 844 844 845 845 845 846 846 847 847 847 847 848 849 850 850 850 850 850 851 852 852 853 855 856 857 857 857
806 808 812 816 820 821 817 813 808 805 807 809 812 821 826 820 812 809 807 806 806 806 806 808 815 823 825 822 821 822 821 822 822 823 824 826 827 828 829 832 834 836 837 838 839 841 842 843 844 845 844 844 844 844 845 847 846 846 847 847 846 846 848 848 848 848 849 850 851 850 850 850 851 852 852 852 852 851 851 853 854 853 854 856 857 857 858
802 806 809 813 819 819 815 811 807 806 808 811 819 829 827 818 815 813 809 807 807 807 808 812 818 823 822 820 822 823 823 826 827 826 828 829 829 830 832 834 836 838 839 840 841 842 843 844 846 846 846 846 846 847 847 848 848 848 850 849 848 849 851 851 850 850 851 852 852 852 852 852 853 853 853 853 853 853 853 854 855 854 855 857 858 858 858
801 802 806 814 822 819 814 811 808 806 812 819 824 824 819 816 817 815 812 810 808 807 810 813 816 818 819 820 822 822 824 828 828 827 829 831 832 833 834 835 837 839 841 842 843 844 845 846 847 847 847 847 847 848 849 849 849 850 850 850 850 850 852 852 852 852 852 852 853 853 854 854 855 855 854 854 855 855 856 856 856 856 858 859 859 858 858
804 803 809 822 828 822 813 810 809 810 816 823 821 816 814 815 815 815 815 814 811 809 810 812 816 818 820 821 822 823 825 827 827 828 829 831 833 835 837 837 837 839 842 844 844 845 846 847 848 848 849 849 849 850 850 851 851 852 852 852 852 852 853 853 853 854 854 853 854 855 855 856 857 857 856 856 857 858 858 858 859 859 860 860 859 858 857
808 809 816 825 825 819 813 813 816 818 819 819 818 816 815 815 814 814 814 814 813 812 811 813 816 819 821 822 823 824 826 827 828 829 830 831 833 835 837 838 838 840 843 845 845 846 847 847 849 849 850 850 851 852 852 853 853 853 853 854 854 854 855 854 854 855 855 854 855 855 856 857 857 857 857 857 857 857 858 858 859 859 859 858 858 857 857
812 814 818 819 818 816 816 816 818 820 819 818 818 818 816 815 816 814 813 813 814 813 813 815 817 819 821 822 823 825 827 828 829 830 831 832 833 834 836 839 840 842 845 846 847 848 848 848 850 850 851 852 852 852 853 854 854 854 855 855 855 855 855 855 855 855 856 856 855 855 855 856 856 856 858 857 856 857 858 858 858 857 857 857 857 857 857
815 817 817 816 817 818 818 819 820 820 820 819 818 818 817 818 817 816 815 815 814 814 814 815 816 818 820 821 822 825 828 828 830 831 833 834 835 836 837 840 842 843 845 847 848 849 849 850 851 851 852 853 853 854 855 855 855 855 856 856 856 856 856 856 856 856 856 856 856 855 855 855 855 856 858 858 857 857 858 858 858 857 857 857 857 858 858
818 821 819 817 819 820 819 819 821 821 821 820 820 820 820 820 818 818 817 817 816 816 816 816 817 818 819 821 823 825 828 830 831 832 834 835 837 838 838 840 842 844 845 847 849 849 850 851 851 852 853 854 854 855 855 856 856 856 856 857 857 857 857 857 857 857 857 856 856 856 856 856 856 857 858 858 858 858 858 858 858 858 857 857 858 858 859
816 820 819 818 819 820 819 819 819 820 822 822 821 821 820 820 820 820 820 819 818 818 817 818 819 819 820 822 824 826 828 830 832 833 835 836 837 839 840 841 842 844 845 847 849 850 851 852 853 853 854 854 855 856 856 856 857 857 857 857 857 857 858 858 858 858 858 857 857 857 857 857 857 857 858 858 858 858 858 858 858 858 858 858 858 859 859
815 817 818 818 819 820 819 819 820 820 821 822 822 821 820 819 820 820 821 821 821 820 820 819 820 821 822 823 824 826 827 829 831 833 835 836 838 839 840 841 843 844 845 847 848 850 852 853 854 854 855 855 856 856 857 857 857 857 858 858 858 858 858 858 858 859 858 858 858 858 858 858 858 858 859 859 858 858 858 858 858 858 858 858 859 859 859
814 813 813 816 818 818 818 819 820 821 821 821 821 822 821 821 821 822 821 822 822 823 822 822 822 823 824 824 825 826 827 828 831 833 834 836 838 839 840 841 843 844 845 846 847 849 851 853 854 855 855 856 856 856 857 857 857 858 858 858 858 858 858 858 859 859 858 859 859 859 859 859 858 858 858 858 858 858 858 858 858 858 858 858 858 859 859
813 811 811 813 815 816 817 818 820 821 821 821 822 823 823 823 823 823 823 823 823 824 824 824 824 824 825 825 826 827 828 829 831 832 834 835 836 838 839 841 842 843 845 846 847 848 850 852 854 855 856 856 856 856 857 857 858 858 858 858 858 858 858 859 859 859 859 859 859 859 859 859 859 858 858 858 858 858 858 858 858 858 858 858 858 858 858
812 812 812 813 815 816 817 819 820 821 821 822 822 823 824 824 824 824 825 825 825 825 825 825 826 826 826 827 827 827 828 830 831 832 834 835 836 838 839 841 842 843 844 846 847 847 849 851 852 854 855 856 856 857 857 858 858 858 858 858 858 858 859 859 860 860 860 859 859 859 859 859 858 858 857 857 857 858 858 858 858 858 858 858 858 858 858
812 811 812 814 815 816 818 819 820 821 822 823 823 824 825 825 826 825 825 826 826 826 826 826 827 828 828 828 828 828 829 830 832 833 834 835 837 838 839 840 842 843 844 846 847 847 848 849 851 853 854 855 856 857 858 858 858 859 859 859 859 859 859 859 859 860 860 860 860 860 859 859 859 858 857 857 856 856 857 857 857 858 858 858 858 858 858
812 812 814 816 817 817 819 820 820 822 823 823 824 825 826 827 827 827 827 827 827 827 827 827 828 828 829 829 829 829 830 831 832 834 834 835 836 837 838 840 841 842 844 845 846 847 848 849 851 853 854 855 856 857 857 858 859 859 860 860 860 860 859 859 860 860 860 860 860 860 860 860 859 858 858 857 857 856 856 856 856 857 857 857 857 858 857
813 813 815 817 818 818 819 819 820 822 823 824 825 825 826 827 828 827 827 828 828 828 828 828 829 829 830 830 830 830 831 831 833 834 834 835 836 837 838 840 841 842 843 844 845 847 848 849 851 852 854 855 856 856 857 858 858 859 860 860 860 860 860 860 860 860 860 860 860 860 861 861 860 859 859 858 858 857 857 856 856 856 856 856 856 856 856
813 813 815 816 817 817 818 820 821 823 824 825 825 826 826 827 827 827 827 827 828 828 828 829 829 829 830 830 830 831 832 832 832 833 833 834 835 837 838 839 840 841 843 844 845 846 847 849 850 852 853 854 855 856 856 857 858 859 860 860 860 860 860 860 860 860 860 860 860 860 861 861 860 860 859 859 858 857 857 857 856 856 856 856 856 855 855
813 814 814 815 816 817 819 821 822 823 824 826 826 826 826 826 826 826 826 827 828 828 828 829 830 830 830 830 830 831 831 831 832 833 833 834 835 836 837 838 839 841 842 843 844 845 846 848 849 850 851 853 854 855 856 856 857 858 859 859 860 860 860 860 860 860 859 860 860 860 860 860 860 860 859 859 858 857 857 857 856 856 856 856 856 856 855
812 813 815 816 817 818 820 821 822 823 824 825 825 826 826 826 826 826 826 827 828 828 828 829 830 830 830 830 830 831 831 831 831 832 833 833 834 835 836 837 838 839 840 841 843 844 845 846 847 849 850 851 852 854 855 856 856 857 858 858 859 859 859 859 859 859 859 859 859 859 859 859 859 859 858 858 858 857 856 856 856 856 855 855 855 855 855
811 813 815 816 817 818 819 820 821 822 823 824 825 825 826 826 826 826 827 828 828 828 828 829 829 830 830 830 831 831 831 831 831 831 832 832 833 834 835 836 836 837 837 838 840 841 843 844 846 847 848 849 851 853 854 855 856 857 857 858 858 858 858 859 859 859 859 859 858 858 858 858 858 858 858 857 857 856 856 855 855 855 855 854 854 854 854
812 814 815 817 817 818 818 820 821 822 823 824 825 825 825 826 826 826 827 828 828 828 829 829 829 830 830 831 831 831 831 831 831 831 831 831 832 832 833 834 834 835 835 836 837 839 840 842 843 845 846 848 849 851 853 854 855 856 856 857 857 857 857 857 858 858 858 858 858 858 857 857 857 857 857 857 856 856 855 855 854 854 854 854 854 854 854
812 814 815 816 816 817 818 819 820 822 823 823 824 824 825 826 826 827 827 828 828 829 829 829 829 830 830 830 830 830 830 830 830 830 830 830 830 831 831 832 832 833 834 835 836 837 838 839 841 842 844 845 848 850 852 853 854 855 856 856 856 857 857 857 857 857 857 857 857 857 857 857 857 856 856 856 856 855 855 854 854 854 853 853 853 854 853
809 811 812 812 814 816 817 818 819 821 822 823 823 824 825 826 826 826 827 828 828 828 828 829 829 829 829 830 830 829 829 829 828 828 828 828 828 829 829 830 830 831 831 832 833 834 835 837 838 839 841 843 845 847 850 851 853 853 854 854 855 856 856 856 856 856 856 856 856 856 857 857 857 856 856 856 855 855 855 854 854 854 853 853 853 853 852
808 809 810 811 813 815 816 817 819 820 821 822 823 823 825 825 826 826 827 827 828 828 828 828 828 828 828 828 828 828 828 827 827 827 827 827 827 827 827 828 828 828 829 830 830 831 833 834 835 836 838 840 842 844 846 849 851 852 852 853 854 854 855 855 855 855 855 855 856 856 856 856 856 856 855 855 855 855 855 855 854 854 853 853 853 853 852
809 810 812 813 815 816 817 818 819 820 821 822 823 823 824 825 825 826 826 827 827 827 827 827 827 827 826 826 826 826 826 826 825 825 825 825 825 825 825 825 826 826 826 827 827 829 831 832 832 832 835 837 840 842 844 846 848 850 851 852 852 853 853 854 854 854 855 855 855 855 855 855 855 855 855 855 855 855 855 855 855 854 854 853 852 852 852
811 812 813 815 816 818 819 820 821 822 823 823 823 824 824 825 825 825 826 826 826 826 826 826 826 825 825 825 824 824 824 824 824 824 823 823 824 823 823 823 823 823 823 824 824 826 829 829 829 830 833 835 838 840 842 845 847 849 850 850 851 851 852 852 853 853 853 853 854 854 854 855 854 855 855 856 856 856 856 855 855 854 854 853 852 853 853
812 814 816 817 818 819 820 821 822 823 823 823 823 824 824 824 825 825 825 825 825 825 825 824 824 823 823 823 822 822 822 822 822 822 821 821 821 821 820 820 819 819 820 820 822 824 826 827 827 830 832 834 837 839 841 843 846 848 849 849 850 850 850 851 852 852 852 852 853 853 854 854 854 854 855 856 856 856 856 855 855 855 854 854 853 853 853
814 816 817 818 819 820 821 821 822 822 823 823 823 823 824 824 824 824 824 824 823 823 823 822 822 821 821 820 820 819 819 819 819 819 819 819 819 818 817 817 816 817 817 819 820 822 823 825 826 829 831 833 835 837 839 842 844 846 847 848 849 849 850 850 850 851 851 851 851 852 853 854 854 854 855 855 855 855 856 855 855 855 854 854 853 853 852
815 816 818 818 819 820 821 821 822 822 823 823 823 823 823 824 823 823 823 822 822 822 821 821 820 819 818 818 817 816 816 816 816 816 816 816 816 816 814 814 814 815 816 818 819 820 822 824 825 828 830 832 834 836 838 841 843 845 846 847 848 848 849 849 850 850 850 850 851 852 853 853 854 854 854 854 854 855 855 855 855 854 854 853 853 852 852
815 817 818 819 820 820 821 821 822 822 822 823 823 823 823 823 822 822 821 820 820 820 819 819 818 817 816 815 815 814 814 814 814 813 814 813 813 813 812 811 813 814 815 817 818 819 821 823 825 827 830 832 833 835 838 841 843 844 845 846 847 847 848 848 849 849 849 849 850 851 852 852 853 853 853 853 854 854 854 854 854 854 853 853 852 852 852
816 818 818 819 820 821 821 822 822 822 822 822 822 822 822 822 822 821 821 820 819 819 817 817 816 816 815 814 813 812 812 812 811 811 811 811 811 810 810 810 812 813 814 816 818 819 821 824 826 827 829 831 832 834 838 841 842 843 844 845 846 847 847 847 848 848 848 849 850 851 851 852 852 852 852 852 853 853 853 853 853 853 853 853 852 852 852
817 818 819 819 820 821 821 821 821 821 822 822 821 822 822 822 821 821 820 819 818 817 816 815 814 813 813 812 811 810 809 809 808 808 808 809 809 809 810 810 812 813 814 816 818 820 822 824 826 827 828 830 832 835 837 840 841 842 843 844 845 846 846 847 847 847 848 849 850 850 851 851 851 851 851 851 852 852 852 852 852 852 852 852 851 851 851
818 818 819 820 820 820 820 821 820 821 821 822 821 821 821 821 821 820 820 819 818 817 816 814 813 812 811 809 808 807 806 806 806 806 807 808 809 809 810 811 812 813 814 816 818 820 822 824 825 826 828 830 832 835 837 839 840 842 843 844 844 845 845 846 846 847 847 848 849 849 850 850 850 850 850 850 850 851 851 851 851 851 851 851 851 850 850
818 819 819 820 820 820 820 820 820 821 822 821 821 821 821 821 821 820 819 818 817 816 815 814 812 810 809 807 805 805 805 804 804 805 806 806 807 808 809 811 812 813 815 817 819 820 821 823 824 827 829 831 833 835 837 838 840 841 842 843 843 844 844 845 846 846 847 848 848 848 848 849 849 849 849 849 849 850 850 850 850 850 850 850 849 849 849
818 818 819 819 819 820 821 821 821 821 821 820 820 821 821 821 821 820 819 818 817 816 815 814 812 810 808 805 803 803 803 803 804 805 805 805 806 807 809 811 812 814 815 818 819 820 821 823 826 828 830 831 833 835 837 838 839 840 841 842 842 843 844 844 845 845 846 847 847 847 847 847 847 848 848 848 849 849 849 849 849 849 849 849 848 848 848
817 817 818 819 820 820 821 821 820 820 820 820 820 820 821 821 821 820 819 818 817 816 815 814 812 810 808 805 803 802 802 803 804 805 805 805 806 808 809 811 812 814 816 818 821 822 824 826 828 829 830 832 834 836 837 838 839 840 840 841 842 842 843 844 844 845 845 846 846 847 847 847 847 847 847 848 848 848 848 848 848 848 848 848 848 847 847
816 816 817 819 820 820 820 820 819 819 820 820 820 821 821 821 821 820 820 819 818 817 815 814 812 811 809 807 805 804 804 805 806 806 807 807 808 810 812 813 814 816 818 820 823 825 827 828 830 831 832 833 834 836 837 837 838 839 840 841 841 842 842 843 844 844 845 845 845 846 846 846 846 846 846 847 847 847 847 847 847 847 847 847 847 846 846
816 816 818 819 819 819 819 819 819 819 820 820 821 821 821 821 821 820 820 819 818 817 816 815 814 812 811 809 808 807 807 807 807 809 809 810 811 813 816 817 818 819 820 822 825 827 829 830 832 832 833 834 835 836 837 837 838 839 840 840 841 841 842 843 843 843 844 844 844 844 845 845 845 845 845 846 846 846 846 846 846 846 846 846 845 845 845
816 816 817 818 819 819 819 818 818 819 820 820 821 821 821 820 820 820 820 819 818 818 817 816 815 815 813 812 811 811 810 810 811 812 814 814 815 817 819 820 821 822 823 825 827 829 830 832 833 833 834 834 835 836 836 837 838 838 839 840 841 841 842 842 843 843 843 843 843 843 843 844 844 844 844 844 844 844 845 845 844 844 844 844 844 844 844
815 816 817 818 819 819 819 818 819 820 820 821 821 821 821 820 820 820 820 819 819 818 818 818 818 817 816 816 816 815 816 816 816 817 818 819 820 821 822 823 824 825 826 827 829 830 831 832 833 834 834 834 835 835 836 837 837 838 839 840 840 841 841 841 842 842 842 842 842 842 842 842 843 843 843 843 843 843 843 843 843 843 843 843 843 843 842
814 815 817 817 818 819 819 819 820 821 821 821 821 821 820 820 820 820 820 820 820 819 819 819 819 819 819 819 819 819 820 820 820 821 822 823 823 824 825 825 826 827 827 828 829 830 831 832 833 834 834 834 835 835 836 836 837 838 838 839 839 840 840 840 840 841 841 841 841 841 841 841 841 842 842 842 842 842 842 842 842 842 842 842 841 841 841